This is the latest recevied weather packets stored in our database for station/object KCDH. If no packets are shown the sender has not sent any weather packets the latest 1 day(s).
| Time | Temp. | Humidity | Pressure | Rain* | Wind** | Luminosity | Snow |
|---|---|---|---|---|---|---|---|
| 1836274576 | 20.56° C | 100% | 1016.6 hPa | - | 0 m/s | - | - |
| 1836274427 | 20.56° C | 100% | 1016.6 hPa | - | 0 m/s | - | - |
| 1836273975 | 20.56° C | 100% | 1016.6 hPa | - | 0 m/s | - | - |
| 1778051009 | 23.89° C | 88% | 1006.8 hPa | - | 3.58 m/s, 200° | - | - |
| 1778050404 | 22.78° C | 94% | 1007.1 hPa | - | 4.47 m/s, 200° | - | - |
| 1778049805 | 22.78° C | 94% | 1007.5 hPa | - | 4.02 m/s, 210° | - | - |
| 1778049212 | 22.78° C | 94% | 1007.5 hPa | - | 4.02 m/s, 210° | - | - |
| 1778048607 | 22.78° C | 94% | 1007.5 hPa | - | 4.02 m/s, 210° | - | - |
| 1778048006 | 22.78° C | 94% | 1007.5 hPa | - | 4.02 m/s, 210° | - | - |
| 1778047411 | 22.78° C | 94% | 1007.5 hPa | - | 4.02 m/s, 210° | - | - |
| 1778046807 | 23.89° C | 88% | 1006.8 hPa | - | 4.02 m/s, 190° | - | - |
| 1778046212 | 23.89° C | 88% | 1006.8 hPa | - | 4.02 m/s, 190° | - | - |
| 1778045605 | 23.89° C | 88% | 1007.1 hPa | - | 4.02 m/s, 190° | - | - |
| 1778045007 | 23.89° C | 88% | 1007.1 hPa | - | 4.02 m/s, 190° | - | - |
| 1778044406 | 22.78° C | 94% | 1007.1 hPa | - | 4.02 m/s, 190° | - | - |
| 1778043809 | 22.78° C | 94% | 1007.1 hPa | - | 4.02 m/s, 190° | - | - |
| 1778043206 | 23.89° C | 88% | 1007.1 hPa | - | 4.02 m/s, 200° | - | - |
| 1778042608 | 23.89° C | 88% | 1007.1 hPa | - | 4.02 m/s, 200° | - | - |
| 1778042007 | 23.89° C | 88% | 1007.1 hPa | - | 3.58 m/s, 200° | - | - |
| 1778041408 | 23.89° C | 88% | 1007.1 hPa | - | 3.58 m/s, 200° | - | - |
| 1778040809 | 23.89° C | 88% | 1006.8 hPa | - | 4.02 m/s, 200° | - | - |
| 1778040327 | 23.89° C | 88% | 1006.8 hPa | - | 4.02 m/s, 200° | - | - |
| 1778039605 | 23.89° C | 88% | 1006.4 hPa | - | 4.47 m/s, 180° | - | - |
| 1778039012 | 23.89° C | 88% | 1006.4 hPa | - | 4.47 m/s, 180° | - | - |
| 1778038411 | 23.89° C | 88% | 1006.1 hPa | - | 2.68 m/s, 180° | - | - |
* Rain since midnight (hover to see other rain measurements)
** Current wind speed in m/s (hover to see current wind gust speed)